Zurück zum Katalog

SL-8 R/B

AktivLEO
NORAD 12644·ROCKET BODY·🇷🇺 Russia

Gestartet Aug 6, 1981 von Plesetsk Cosmodrome

Loading…

Nächste Überflüge (nächste 24 Stunden)

TLE

AktuellSource: Space-Track

Epoche: Sep 14, 2026, 07:41 UTC

1 12644U 81074J   26257.32064039 -.00000085  00000-0 -60662-3 0  9994
2 12644  74.0293 101.5081 0130798 356.2115 176.2809 12.26027005 18648

Verfolge SL-8 R/B in Echtzeit mit AllMySat

Download on the App Store